| time (UTC) | temp F | wind direction | speed knots | gust knots | rain 1hr in | rain 24hr in | rain mn in | humidity % | barometer mb |
| 20260506091629 | 44 | 302 | 0.0 | 0.9 | 0.00 | 0.00 | 0.00 | 66 | 1006.8 |
| 20260506091126 | 44 | 303 | 0.0 | 0.0 | 0.00 | 0.00 | 0.00 | 65 | 1007.5 |
| 20260506090624 | 44 | 302 | 0.0 | 0.9 | 0.00 | 0.00 | 0.00 | 65 | 1007.1 |
| 20260506090120 | 44 | 295 | 0.0 | 0.9 | 0.00 | 0.00 | 0.00 | 65 | 1006.8 |
| 20260506085617 | 44 | 317 | 0.0 | 0.9 | 0.00 | 0.00 | 0.00 | 65 | 1007.1 |
| 20260506085113 | 44 | 318 | 0.9 | 1.7 | 0.00 | 0.00 | 0.00 | 65 | 1006.8 |
| 20260506084610 | 44 | 307 | 0.0 | 1.7 | 0.00 | 0.00 | 0.00 | 64 | 1006.8 |
| 20260506084107 | 44 | 354 | 0.9 | 1.7 | 0.00 | 0.00 | 0.00 | 64 | 1006.8 |
| 20260506083604 | 44 | 328 | 0.0 | 2.6 | 0.00 | 0.00 | 0.00 | 64 | 1007.1 |
| 20260506083101 | 45 | 13 | 0.9 | 0.9 | 0.00 | 0.00 | 0.00 | 65 | 1007.1 |
| 20260506082558 | 45 | 26 | 1.7 | 2.6 | 0.00 | 0.00 | 0.00 | 65 | 1007.1 |
| 20260506082053 | 45 | 331 | 0.9 | 1.7 | 0.00 | 0.00 | 0.00 | 65 | 1007.1 |
| 20260506081552 | 45 | 342 | 1.7 | 2.6 | 0.00 | 0.00 | 0.00 | 65 | 1007.1 |
| 20260506081049 | 45 | 334 | 2.6 | 3.5 | 0.00 | 0.00 | 0.00 | 65 | 1007.1 |
| 20260506080547 | 45 | 343 | 1.7 | 5.2 | 0.00 | 0.00 | 0.00 | 65 | 1007.1 |
| 20260506073027 | 47 | 313 | 0.0 | 1.7 | 0.00 | 0.00 | 0.00 | 61 | 1006.4 |
| 20260506072524 | 48 | 301 | 0.0 | 0.0 | 0.00 | 0.00 | 0.00 | 61 | 1006.4 |
| 20260506072022 | 48 | 331 | 0.0 | 0.9 | 0.00 | 0.00 | 0.00 | 60 | 1006.4 |
| 20260506071520 | 48 | 307 | 0.0 | 0.9 | 0.00 | 0.00 | 0.00 | 59 | 1006.4 |
| 20260506071016 | 48 | 342 | 0.0 | 2.6 | 0.00 | 0.00 | 0.00 | 58 | 1006.8 |
| 20260506070514 | 48 | 300 | 0.0 | 1.7 | 0.00 | 0.00 | 0.00 | 57 | 1007.1 |
| 20260506062451 | 49 | 292 | 0.0 | 0.0 | 0.00 | 0.00 | 0.00 | 53 | 1006.4 |
| 20260506061947 | 49 | 291 | 0.0 | 0.9 | 0.00 | 0.00 | 0.00 | 51 | 1006.4 |
| 20260506061443 | 49 | 287 | 0.0 | 1.7 | 0.00 | 0.00 | 0.00 | 51 | 1006.4 |
| 20260506060941 | 49 | 296 | 0.0 | 1.7 | 0.00 | 0.00 | 0.00 | 51 | 1006.4 |
| 20260506060440 | 49 | 258 | 1.7 | 1.7 | 0.00 | 0.00 | 0.00 | 51 | 1006.1 |
| 20260506051411 | 49 | 292 | 0.0 | 1.7 | 0.00 | 0.00 | 0.00 | 54 | 1006.4 |
| 20260506050908 | 49 | 290 | 0.0 | 0.0 | 0.00 | 0.00 | 0.00 | 53 | 1006.1 |
| 20260506050406 | 50 | 299 | 0.0 | 0.9 | 0.00 | 0.00 | 0.00 | 51 | 1006.1 |
| 20260506044856 | 50 | 298 | 0.9 | 1.7 | 0.00 | 0.00 | 0.00 | 51 | 1006.4 |
| 20260506044354 | 49 | 288 | 0.0 | 0.9 | 0.00 | 0.00 | 0.00 | 53 | 1006.4 |
| 20260506043851 | 50 | 293 | 0.0 | 0.0 | 0.00 | 0.00 | 0.00 | 54 | 1006.4 |
| 20260506043348 | 50 | 286 | 0.0 | 0.0 | 0.00 | 0.00 | 0.00 | 53 | 1006.4 |
| 20260506042847 | 50 | 286 | 0.0 | 0.0 | 0.00 | 0.00 | 0.00 | 56 | 1006.4 |
| 20260506042345 | 50 | 286 | 0.0 | 0.0 | 0.00 | 0.00 | 0.00 | 53 | 1006.4 |
| 20260506041844 | 50 | 286 | 0.0 | 0.0 | 0.00 | 0.00 | 0.00 | 55 | 1006.4 |
| 20260506041340 | 50 | 286 | 0.0 | 0.0 | 0.00 | 0.00 | 0.00 | 56 | 1006.4 |
| 20260506040837 | 50 | 295 | 0.9 | 1.7 | 0.00 | 0.00 | 0.00 | 52 | 1006.4 |
| 20260506040335 | 50 | 284 | 0.0 | 0.0 | 0.00 | 0.00 | 0.00 | 50 | 1006.4 |
| 20260506035831 | 50 | 281 | 0.0 | 1.7 | 0.00 | 0.04 | 0.04 | 50 | 1006.4 |
| 20260506035329 | 50 | 268 | 1.7 | 2.6 | 0.00 | 0.04 | 0.04 | 51 | 1006.4 |
| 20260506034825 | 50 | 283 | 0.0 | 0.9 | 0.00 | 0.04 | 0.04 | 54 | 1006.4 |
| 20260506034323 | 50 | 257 | 0.0 | 0.9 | 0.00 | 0.04 | 0.04 | 57 | 1006.4 |
| 20260506033820 | 50 | 280 | 0.9 | 2.6 | 0.00 | 0.04 | 0.04 | 57 | 1006.4 |
| 20260506033317 | 50 | 271 | 0.0 | 1.7 | 0.00 | 0.04 | 0.04 | 61 | 1006.4 |
| 20260506032813 | 50 | 281 | 0.0 | 0.9 | 0.00 | 0.04 | 0.04 | 61 | 1006.4 |
| 20260506032310 | 50 | 290 | 0.0 | 0.0 | 0.00 | 0.04 | 0.04 | 64 | 1006.4 |
| 20260506031807 | 50 | 294 | 0.0 | 0.9 | 0.00 | 0.04 | 0.04 | 69 | 1006.4 |
| 20260506031304 | 50 | 293 | 0.0 | 0.0 | 0.00 | 0.04 | 0.04 | 72 | 1006.4 |
| 20260506030802 | 50 | 292 | 0.0 | 0.0 | 0.00 | 0.04 | 0.04 | 72 | 1006.4 |
| 20260506030300 | 50 | 292 | 0.0 | 0.0 | 0.00 | 0.04 | 0.04 | 72 | 1006.4 |
| 20260506025757 | 50 | 292 | 0.0 | 0.0 | 0.00 | 0.04 | 0.04 | 71 | 1006.8 |
| 20260506025253 | 50 | 292 | 0.0 | 0.0 | 0.00 | 0.04 | 0.04 | 73 | 1006.8 |
| 20260506024750 | 50 | 292 | 0.0 | 0.0 | 0.00 | 0.04 | 0.04 | 74 | 1006.4 |
| 20260506024246 | 50 | 292 | 0.0 | 0.0 | 0.00 | 0.04 | 0.04 | 74 | 1006.8 |
| 20260506023742 | 50 | 292 | 0.0 | 0.9 | 0.00 | 0.04 | 0.04 | 74 | 1006.8 |
| 20260506023240 | 50 | 289 | 0.0 | 0.0 | 0.00 | 0.04 | 0.04 | 75 | 1006.8 |
| 20260506022737 | 50 | 295 | 0.0 | 0.9 | 0.00 | 0.04 | 0.04 | 75 | 1006.8 |
| 20260506022235 | 50 | 277 | 0.0 | 0.0 | 0.00 | 0.04 | 0.04 | 74 | 1006.8 |
| 20260506021732 | 50 | 276 | 0.0 | 0.0 | 0.00 | 0.04 | 0.04 | 74 | 1006.4 |
| 20260506021229 | 50 | 276 | 0.0 | 0.0 | 0.00 | 0.04 | 0.04 | 75 | 1006.4 |
| 20260506020726 | 50 | 276 | 0.0 | 0.0 | 0.00 | 0.04 | 0.04 | 75 | 1006.4 |
| 20260506020224 | 51 | 276 | 0.0 | 0.0 | 0.00 | 0.04 | 0.04 | 74 | 1006.4 |
| 20260506015721 | 51 | 276 | 0.0 | 0.0 | 0.00 | 0.04 | 0.04 | 73 | 1006.4 |
| 20260506015219 | 51 | 276 | 0.0 | 0.0 | 0.00 | 0.04 | 0.04 | 71 | 1006.4 |
| 20260506014715 | 51 | 276 | 0.0 | 0.0 | 0.00 | 0.04 | 0.04 | 71 | 1006.4 |
| 20260506014211 | 51 | 276 | 0.0 | 0.0 | 0.00 | 0.04 | 0.04 | 73 | 1006.1 |
| 20260506013709 | 51 | 276 | 0.0 | 0.0 | 0.00 | 0.04 | 0.04 | 72 | 1006.4 |
| 20260506013206 | 51 | 276 | 0.0 | 0.0 | 0.00 | 0.04 | 0.04 | 73 | 1006.4 |
| 20260506012702 | 51 | 276 | 0.0 | 0.0 | 0.00 | 0.04 | 0.04 | 72 | 1006.4 |
| 20260506012159 | 51 | 276 | 0.0 | 0.0 | 0.00 | 0.04 | 0.04 | 71 | 1006.1 |
| 20260506011657 | 51 | 276 | 0.0 | 0.0 | 0.00 | 0.04 | 0.04 | 71 | 1006.4 |
| 20260506011152 | 51 | 276 | 0.0 | 0.0 | 0.00 | 0.04 | 0.04 | 71 | 1006.1 |
| 20260506010651 | 52 | 276 | 0.0 | 0.0 | 0.00 | 0.04 | 0.04 | 71 | 1006.1 |
| 20260506010148 | 52 | 275 | 0.0 | 0.0 | 0.00 | 0.04 | 0.04 | 70 | 1006.1 |
| 20260506005645 | 52 | 279 | 0.0 | 0.0 | 0.00 | 0.04 | 0.04 | 69 | 1006.1 |
| 20260506005142 | 52 | 279 | 0.0 | 0.0 | 0.00 | 0.04 | 0.04 | 69 | 1006.1 |
| 20260506004638 | 52 | 279 | 0.0 | 0.0 | 0.00 | 0.04 | 0.04 | 69 | 1006.1 |
| 20260506004135 | 52 | 278 | 0.0 | 0.9 | 0.00 | 0.04 | 0.04 | 68 | 1006.1 |
| 20260506003631 | 52 | 271 | 0.0 | 0.0 | 0.00 | 0.04 | 0.04 | 69 | 1006.1 |
| 20260506003128 | 53 | 264 | 0.0 | 0.0 | 0.00 | 0.04 | 0.04 | 69 | 1005.8 |
| 20260506002624 | 53 | 264 | 0.0 | 0.0 | 0.00 | 0.04 | 0.04 | 69 | 1005.8 |
| 20260506002120 | 53 | 264 | 0.0 | 0.0 | 0.00 | 0.04 | 0.04 | 69 | 1005.8 |
| 20260506001616 | 53 | 268 | 0.0 | 0.0 | 0.00 | 0.04 | 0.04 | 69 | 1005.4 |
| 20260506001113 | 53 | 268 | 0.0 | 0.0 | 0.00 | 0.04 | 0.04 | 68 | 1005.8 |
| 20260506000611 | 53 | 276 | 0.0 | 0.0 | 0.00 | 0.04 | 0.04 | 67 | 1005.8 |
| 20260506000108 | 53 | 277 | 0.0 | 0.0 | 0.00 | 0.04 | 0.04 | 66 | 1005.8 |
| 20260505235606 | 53 | 268 | 0.0 | 0.9 | 0.00 | 0.04 | 0.04 | 67 | 1005.8 |
| 20260505235103 | 53 | 278 | 0.0 | 0.0 | 0.00 | 0.04 | 0.04 | 66 | 1005.4 |
| 20260505234600 | 54 | 278 | 0.0 | 0.0 | 0.00 | 0.04 | 0.04 | 66 | 1005.4 |
| 20260505234056 | 54 | 255 | 0.9 | 2.6 | 0.00 | 0.04 | 0.04 | 65 | 1005.4 |
| 20260505233554 | 54 | 268 | 0.0 | 1.7 | 0.00 | 0.04 | 0.04 | 65 | 1005.4 |
| 20260505233051 | 54 | 277 | 0.0 | 0.0 | 0.00 | 0.04 | 0.04 | 65 | 1005.4 |
| 20260505232549 | 54 | 262 | 0.9 | 0.9 | 0.00 | 0.04 | 0.04 | 65 | 1005.4 |
| 20260505232046 | 54 | 272 | 0.0 | 0.0 | 0.00 | 0.04 | 0.04 | 65 | 1005.4 |
| 20260505231543 | 54 | 279 | 0.0 | 0.9 | 0.00 | 0.04 | 0.04 | 65 | 1005.4 |
| 20260505231042 | 54 | 277 | 0.0 | 0.9 | 0.00 | 0.04 | 0.04 | 65 | 1005.4 |
| 20260505230539 | 54 | 238 | 1.7 | 1.7 | 0.00 | 0.04 | 0.04 | 65 | 1005.8 |
| 20260505230035 | 54 | 256 | 0.0 | 0.0 | 0.00 | 0.04 | 0.04 | 66 | 1005.8 |
| 20260505225532 | 54 | 275 | 0.9 | 1.7 | 0.00 | 0.04 | 0.04 | 65 | 1005.8 |
| 20260505225028 | 54 | 273 | 0.0 | 0.9 | 0.00 | 0.04 | 0.04 | 66 | 1005.8 |
| 20260505224525 | 54 | 243 | 0.9 | 1.7 | 0.00 | 0.04 | 0.04 | 65 | 1005.4 |
| 20260505224022 | 54 | 265 | 0.0 | 1.7 | 0.00 | 0.04 | 0.04 | 65 | 1005.8 |
| 20260505223519 | 54 | 268 | 0.0 | 0.9 | 0.00 | 0.04 | 0.04 | 65 | 1005.8 |
| 20260505223015 | 54 | 251 | 0.9 | 2.6 | 0.00 | 0.04 | 0.04 | 64 | 1005.8 |
| 20260505222512 | 54 | 264 | 0.9 | 1.7 | 0.00 | 0.04 | 0.04 | 65 | 1005.4 |
| 20260505222008 | 54 | 242 | 3.5 | 3.5 | 0.00 | 0.04 | 0.04 | 65 | 1005.8 |
| 20260505221505 | 54 | 230 | 1.7 | 3.5 | 0.00 | 0.04 | 0.04 | 65 | 1005.8 |
| 20260505221002 | 54 | 268 | 0.9 | 5.2 | 0.00 | 0.04 | 0.04 | 65 | 1005.8 |
| 20260505220459 | 54 | 266 | 1.7 | 2.6 | 0.00 | 0.04 | 0.04 | 66 | 1005.4 |
| 20260505215956 | 54 | 257 | 1.7 | 2.6 | 0.00 | 0.04 | 0.04 | 66 | 1005.4 |
| 20260505215455 | 54 | 235 | 0.9 | 3.5 | 0.00 | 0.04 | 0.04 | 66 | 1005.4 |
| 20260505214952 | 54 | 270 | 0.9 | 2.6 | 0.00 | 0.04 | 0.04 | 67 | 1005.4 |
| 20260505214450 | 54 | 278 | 0.0 | 2.6 | 0.00 | 0.04 | 0.04 | 67 | 1005.4 |
| 20260505213947 | 54 | 271 | 1.7 | 5.2 | 0.00 | 0.04 | 0.04 | 67 | 1005.4 |
| 20260505213444 | 54 | 267 | 2.6 | 3.5 | 0.00 | 0.04 | 0.04 | 67 | 1005.8 |
| 20260505212941 | 53 | 253 | 0.9 | 3.5 | 0.00 | 0.04 | 0.04 | 68 | 1005.8 |
| 20260505212437 | 53 | 258 | 1.7 | 2.6 | 0.00 | 0.04 | 0.04 | 67 | 1005.8 |
| 20260505211933 | 53 | 223 | 1.7 | 5.2 | 0.00 | 0.04 | 0.04 | 68 | 1005.8 |
| 20260505211431 | 53 | 255 | 1.7 | 3.5 | 0.00 | 0.04 | 0.04 | 68 | 1005.8 |
| 20260505210927 | 53 | 211 | 1.7 | 2.6 | 0.00 | 0.04 | 0.04 | 68 | 1005.8 |
| 20260505210425 | 53 | 223 | 2.6 | 6.1 | 0.00 | 0.04 | 0.04 | 67 | 1005.4 |
| 20260505205921 | 53 | 247 | 1.7 | 2.6 | 0.00 | 0.04 | 0.04 | 68 | 1005.8 |
| 20260505205420 | 54 | 272 | 0.9 | 5.2 | 0.00 | 0.04 | 0.04 | 69 | 1005.8 |
| 20260505204917 | 53 | 253 | 1.7 | 2.6 | 0.00 | 0.04 | 0.04 | 68 | 1005.8 |
| 20260505204414 | 53 | 291 | 2.6 | 3.5 | 0.00 | 0.04 | 0.04 | 69 | 1005.8 |
| 20260505203911 | 53 | 248 | 2.6 | 5.2 | 0.00 | 0.04 | 0.04 | 69 | 1005.4 |
| 20260505203408 | 53 | 300 | 0.9 | 1.7 | 0.00 | 0.04 | 0.04 | 71 | 1005.8 |
| 20260505202904 | 53 | 270 | 0.0 | 2.6 | 0.00 | 0.04 | 0.04 | 70 | 1005.4 |
| 20260505202400 | 53 | 265 | 1.7 | 2.6 | 0.00 | 0.04 | 0.04 | 71 | 1005.8 |
| 20260505201857 | 53 | 238 | 1.7 | 1.7 | 0.00 | 0.04 | 0.04 | 73 | 1005.8 |
| 20260505201354 | 52 | 218 | 0.9 | 2.6 | 0.00 | 0.04 | 0.04 | 75 | 1005.8 |
| 20260505200853 | 52 | 253 | 0.9 | 2.6 | 0.00 | 0.04 | 0.04 | 76 | 1005.8 |
| 20260505200349 | 52 | 218 | 1.7 | 1.7 | 0.00 | 0.04 | 0.04 | 76 | 1005.8 |
| 20260505195845 | 52 | 247 | 1.7 | 3.5 | 0.00 | 0.04 | 0.04 | 76 | 1005.8 |
| 20260505195343 | 52 | 188 | 2.6 | 3.5 | 0.00 | 0.04 | 0.04 | 76 | 1005.8 |
| 20260505194839 | 52 | 265 | 0.9 | 1.7 | 0.00 | 0.04 | 0.04 | 77 | 1006.1 |
| 20260505194336 | 52 | 255 | 1.7 | 3.5 | 0.00 | 0.04 | 0.04 | 76 | 1006.1 |
| 20260505193832 | 52 | 204 | 2.6 | 2.6 | 0.00 | 0.04 | 0.04 | 77 | 1005.8 |
| 20260505193330 | 51 | 254 | 2.6 | 3.5 | 0.00 | 0.04 | 0.04 | 77 | 1006.1 |
| 20260505192827 | 51 | 255 | 0.9 | 2.6 | 0.00 | 0.04 | 0.04 | 77 | 1006.1 |
| 20260505192326 | 51 | 195 | 5.2 | 6.1 | 0.00 | 0.04 | 0.04 | 77 | 1006.1 |
| 20260505191823 | 51 | 220 | 2.6 | 3.5 | 0.00 | 0.04 | 0.04 | 76 | 1006.1 |
| 20260505191321 | 51 | 231 | 0.0 | 1.7 | 0.00 | 0.04 | 0.04 | 75 | 1006.1 |
| 20260505190817 | 51 | 212 | 2.6 | 3.5 | 0.00 | 0.04 | 0.04 | 75 | 1005.8 |
| 20260505190313 | 51 | 259 | 0.9 | 3.5 | 0.00 | 0.04 | 0.04 | 74 | 1005.8 |
| 20260505185809 | 50 | 253 | 1.7 | 2.6 | 0.00 | 0.04 | 0.04 | 74 | 1005.8 |
| 20260505185306 | 50 | 207 | 0.9 | 3.5 | 0.00 | 0.04 | 0.04 | 73 | 1005.8 |
| 20260505184802 | 50 | 255 | 0.0 | 3.5 | 0.00 | 0.04 | 0.04 | 73 | 1005.8 |
| 20260505184259 | 50 | 250 | 0.9 | 2.6 | 0.00 | 0.04 | 0.04 | 73 | 1005.8 |
| 20260505183756 | 50 | 227 | 1.7 | 2.6 | 0.00 | 0.04 | 0.04 | 73 | 1005.8 |
| 20260505183253 | 50 | 198 | 2.6 | 2.6 | 0.00 | 0.04 | 0.04 | 73 | 1005.8 |
| 20260505182750 | 50 | 246 | 0.9 | 1.7 | 0.00 | 0.04 | 0.04 | 74 | 1005.8 |
| 20260505182246 | 50 | 248 | 0.9 | 2.6 | 0.00 | 0.04 | 0.04 | 74 | 1005.8 |
| 20260505181743 | 50 | 226 | 0.0 | 3.5 | 0.00 | 0.04 | 0.04 | 74 | 1005.4 |
| 20260505181241 | 50 | 241 | 0.9 | 2.6 | 0.00 | 0.04 | 0.04 | 73 | 1005.8 |
| 20260505180737 | 50 | 206 | 1.7 | 3.5 | 0.00 | 0.04 | 0.04 | 72 | 1005.4 |
| 20260505180233 | 50 | 247 | 0.0 | 0.9 | 0.00 | 0.04 | 0.04 | 73 | 1005.4 |
| 20260505175730 | 50 | 247 | 0.0 | 0.9 | 0.00 | 0.04 | 0.04 | 71 | 1005.8 |
| 20260505175226 | 50 | 245 | 0.0 | 2.6 | 0.00 | 0.04 | 0.04 | 72 | 1005.4 |
| 20260505174723 | 50 | 249 | 0.0 | 0.9 | 0.00 | 0.04 | 0.04 | 71 | 1005.4 |
| 20260505174221 | 50 | 244 | 0.0 | 2.6 | 0.07 | 0.04 | 0.04 | 72 | 1005.1 |
| 20260505173716 | 49 | 239 | 0.9 | 2.6 | 0.07 | 0.04 | 0.04 | 69 | 1005.1 |
| 20260505173213 | 49 | 146 | 0.9 | 2.6 | 0.00 | 0.04 | 0.04 | 71 | 1005.4 |
| 20260505172710 | 49 | 342 | 0.0 | 0.9 | 0.00 | 0.03 | 0.03 | 69 | 1005.4 |
| 20260505172207 | 49 | 282 | 0.0 | 0.9 | 0.00 | 0.03 | 0.03 | 72 | 1005.4 |
| 20260505171707 | 48 | 146 | 1.7 | 1.7 | 0.00 | 0.03 | 0.03 | 70 | 1005.8 |
| 20260505171204 | 48 | 233 | 0.0 | 1.7 | 0.05 | 0.03 | 0.03 | 71 | 1005.4 |
| 20260505170701 | 48 | 228 | 0.9 | 0.9 | 0.07 | 0.03 | 0.03 | 70 | 1005.4 |
| 20260505170158 | 48 | 237 | 0.0 | 0.9 | 0.07 | 0.02 | 0.02 | 72 | 1005.4 |
| 20260505165657 | 49 | 197 | 0.9 | 1.7 | 0.07 | 0.01 | 0.01 | 68 | 1005.4 |
| 20260505165154 | 49 | 309 | 0.0 | 0.9 | 0.00 | 0.00 | 0.00 | 63 | 1005.4 |
| 20260505164649 | 49 | 344 | 0.0 | 0.9 | 0.00 | 0.00 | 0.00 | 61 | 1005.4 |
| 20260505164147 | 49 | 64 | 1.7 | 3.5 | 0.00 | 0.00 | 0.00 | 57 | 1005.8 |
| 20260505163645 | 50 | 26 | 0.0 | 2.6 | 0.00 | 0.00 | 0.00 | 57 | 1005.8 |
| 20260505163143 | 50 | 37 | 3.5 | 3.5 | 0.00 | 0.00 | 0.00 | 54 | 1005.4 |
| 20260505162640 | 50 | 72 | 2.6 | 3.5 | 0.00 | 0.00 | 0.00 | 53 | 1005.4 |
| 20260505162137 | 50 | 56 | 1.7 | 5.2 | 0.00 | 0.00 | 0.00 | 52 | 1005.4 |
| 20260505161634 | 51 | 182 | 0.9 | 6.1 | 0.00 | 0.00 | 0.00 | 52 | 1005.4 |
| 20260505161131 | 52 | 46 | 0.9 | 3.5 | 0.00 | 0.00 | 0.00 | 50 | 1005.4 |
| 20260505160629 | 52 | 79 | 2.6 | 3.5 | 0.00 | 0.00 | 0.00 | 50 | 1005.4 |
| 20260505160126 | 52 | 69 | 2.6 | 3.5 | 0.00 | 0.00 | 0.00 | 50 | 1005.4 |
| 20260505153106 | 52 | 80 | 1.7 | 2.6 | 0.00 | 0.00 | 0.00 | 52 | 1004.7 |
| 20260505152602 | 52 | 19 | 0.9 | 2.6 | 0.00 | 0.00 | 0.00 | 51 | 1004.7 |
| 20260505152058 | 52 | 53 | 0.9 | 3.5 | 0.00 | 0.00 | 0.00 | 51 | 1004.3 |
| 20260505151553 | 52 | 160 | 1.7 | 2.6 | 0.00 | 0.00 | 0.00 | 52 | 1004.3 |
| 20260505151051 | 52 | 68 | 3.5 | 3.5 | 0.00 | 0.00 | 0.00 | 52 | 1004.7 |
| 20260505150547 | 52 | 56 | 1.7 | 3.5 | 0.00 | 0.00 | 0.00 | 53 | 1004.3 |
| 20260505140513 | 51 | 22 | 0.9 | 3.5 | 0.00 | 0.00 | 0.00 | 51 | 1003.6 |
| 20260505124926 | 50 | 27 | 1.7 | 8.7 | 0.00 | 0.00 | 0.00 | 49 | 1002.6 |
| 20260505124423 | 51 | 43 | 5.2 | 7.8 | 0.00 | 0.00 | 0.00 | 52 | 1002.6 |
| 20260505123919 | 50 | 57 | 2.6 | 7.0 | 0.00 | 0.00 | 0.00 | 54 | 1003.0 |
| 20260505123411 | 50 | 1 | 0.9 | 2.6 | 0.00 | 0.00 | 0.00 | 57 | 1002.6 |
| 20260505122906 | 50 | 46 | 0.9 | 5.2 | 0.00 | 0.00 | 0.00 | 55 | 1002.6 |
| 20260505122404 | 50 | 10 | 0.9 | 1.7 | 0.00 | 0.00 | 0.00 | 56 | 1002.6 |
| 20260505121901 | 50 | 21 | 0.9 | 2.6 | 0.00 | 0.00 | 0.00 | 57 | 1002.3 |
| 20260505121358 | 49 | 167 | 1.7 | 7.0 | 0.00 | 0.00 | 0.00 | 57 | 1002.3 |
| 20260505120853 | 49 | 75 | 0.9 | 3.5 | 0.00 | 0.00 | 0.00 | 58 | 1002.3 |
| 20260505120350 | 49 | 45 | 0.9 | 1.7 | 0.00 | 0.00 | 0.00 | 59 | 1002.3 |
| 20260505115848 | 49 | 71 | 3.5 | 7.0 | 0.00 | 0.00 | 0.00 | 57 | 1001.9 |
| 20260505115346 | 50 | 29 | 1.7 | 7.0 | 0.00 | 0.00 | 0.00 | 61 | 1001.9 |
| 20260505114844 | 50 | 25 | 5.2 | 7.0 | 0.00 | 0.00 | 0.00 | 58 | 1001.9 |
| 20260505114340 | 50 | 30 | 2.6 | 6.1 | 0.00 | 0.00 | 0.00 | 59 | 1001.6 |
| 20260505113836 | 49 | 65 | 4.3 | 7.0 | 0.00 | 0.00 | 0.00 | 59 | 1001.3 |
| 20260505113333 | 50 | 35 | 4.3 | 7.8 | 0.00 | 0.00 | 0.00 | 61 | 1001.3 |
| 20260505112829 | 50 | 60 | 1.7 | 7.0 | 0.00 | 0.00 | 0.00 | 62 | 1001.3 |
| 20260505112326 | 50 | 63 | 3.5 | 7.0 | 0.00 | 0.00 | 0.00 | 65 | 1000.9 |
| 20260505111822 | 51 | 67 | 3.5 | 8.7 | 0.00 | 0.00 | 0.00 | 65 | 1001.3 |
| 20260505111318 | 53 | 69 | 4.3 | 7.0 | 0.00 | 0.00 | 0.00 | 66 | 1001.3 |
| 20260505110814 | 58 | 337 | 0.0 | 0.0 | 0.00 | 0.00 | 0.00 | 74 | 1001.3 |
| 20260505110311 | 58 | 289 | 0.9 | 0.9 | 0.00 | 0.00 | 0.00 | 74 | 1000.6 |
| 20260505101746 | 58 | 293 | 1.7 | 2.6 | 0.00 | 0.00 | 0.00 | 72 | 999.6 |
| 20260505101241 | 59 | 254 | 1.7 | 3.5 | 0.00 | 0.00 | 0.00 | 71 | 999.6 |
| 20260505100738 | 59 | 278 | 0.0 | 2.6 | 0.00 | 0.00 | 0.00 | 71 | 999.1 |
| 20260505100235 | 59 | 262 | 2.6 | 7.0 | 0.00 | 0.00 | 0.00 | 70 | 999.1 |
| 20260505095730 | 59 | 231 | 1.7 | 3.5 | 0.00 | 0.00 | 0.00 | 71 | 999.1 |
| 20260505095228 | 59 | 310 | 1.7 | 2.6 | 0.00 | 0.00 | 0.00 | 71 | 999.1 |
| 20260505094723 | 59 | 287 | 1.7 | 7.0 | 0.00 | 0.00 | 0.00 | 70 | 999.1 |
| 20260505094220 | 59 | 261 | 1.7 | 2.6 | 0.00 | 0.00 | 0.00 | 70 | 999.1 |
| 20260505093716 | 59 | 220 | 3.5 | 6.1 | 0.00 | 0.00 | 0.00 | 70 | 998.8 |
| 20260505093214 | 59 | 279 | 2.6 | 7.8 | 0.00 | 0.00 | 0.00 | 69 | 998.5 |
| 20260505092710 | 59 | 265 | 2.6 | 3.5 | 0.00 | 0.00 | 0.00 | 70 | 998.5 |
| 20260505092210 | 59 | 264 | 0.9 | 3.5 | 0.00 | 0.00 | 0.00 | 69 | 998.8 |